Flag for Canada Weather past 2 weeks in Happy Valley-Goose Bay, Newfoundland and Labrador, Canada

Now
59 °F

Passing clouds.


Feels Like: 59 °F
Forecast: 41 / 60 °F
Wind: 5 mph from West

Location: Goose

Current Time: Sep 4, 2015 at 1:56:04 PM

Latest Report: Sep 4, 2015 at 1:00 PM


Visibility: 15 mi

Pressure: 30.09 "Hg

Humidity: 48%

Dew point: 39 °F

Location of Happy Valley-Goose BayLocation

Historic Weather in Happy Valley-Goose Bay — Graph

°F

Happy Valley-Goose Bay temperature yesterday

Maximum temperature yesterday: 55 °F (at 9:49 AM)
Minimum temperature yesterday: 46 °F (at 8:00 PM)
Average temperature yesterday: 50 °F

Past Weeks' High & Low Weather Summary

 TemperatureHumidityPressure
High86 °F (Aug 21, 4:00 PM)100% (Aug 26, 6:00 AM)30.13 "Hg (Aug 26, 6:00 AM)
Low41 °F (Sep 4, 5:00 AM)35% (Aug 30, 4:00 PM)29.58 "Hg (Sep 3, 5:00 AM)
Average60 °F78%29.89 "Hg
* Reported Aug 20 12:00 Noon — Sep 4 12:00 Noon, Happy Valley-Goose Bay, Weather by CustomWeather, © 2015

Note: Actual official high and low records may vary slightly from our data, if they occured in-between our weather recording intervals... More about our weather records

Advertising

Happy Valley-Goose Bay weather history for previous 24 hours

 ConditionsComfort  
Time TempWeatherWind HumidityBarometerVisibility
12:00 PM
Fri, Sep 4
55 °FScattered clouds.No wind59%30.11 "Hg15 mi
11:00 AM54 °FPartly sunny.3 mph67%30.12 "Hg15 mi
10:00 AM52 °FScattered clouds.9 mph72%30.13 "Hg15 mi
9:00 AM48 °FPassing clouds.8 mph76%30.13 "Hg15 mi
8:00 AM45 °FPassing clouds.10 mph81%30.11 "Hg15 mi
7:00 AM41 °FPassing clouds.8 mph93%30.07 "Hg15 mi
6:00 AM41 °FPassing clouds.9 mph93%30.05 "Hg15 mi
5:00 AM41 °FPassing clouds.7 mph93%30.03 "Hg15 mi
4:00 AM43 °FPassing clouds.8 mph87%30.01 "Hg15 mi
3:00 AM43 °FPartly cloudy.3 mph87%30.00 "Hg15 mi
2:00 AM46 °FPartly cloudy.5 mph82%29.98 "Hg15 mi
1:00 AM46 °FPartly cloudy.6 mph82%29.96 "Hg15 mi
12:00 AM48 °FPartly cloudy.8 mph76%29.95 "Hg15 mi
11:00 PM
Thu, Sep 3
46 °FPassing clouds.6 mph87%29.94 "Hg15 mi
10:00 PM46 °FPassing clouds.7 mph82%29.93 "Hg15 mi
9:00 PM46 °FPassing clouds.6 mph87%29.91 "Hg15 mi
8:00 PM46 °FPartly sunny.5 mph82%29.90 "Hg15 mi
7:00 PM48 °FMostly cloudy.10 mph76%29.88 "Hg15 mi
6:00 PM48 °FSprinkles. Overcast.14 mph76%29.85 "Hg15 mi
5:00 PM48 °FMostly cloudy.20 mph82%29.83 "Hg15 mi
4:00 PM48 °FMore clouds than sun.17 mph87%29.80 "Hg15 mi
3:47 PM48 °FMore clouds than sun.12 mph87%29.79 "Hg15 mi
3:00 PM48 °FScattered showers. Mostly cloudy.12 mph87%29.77 "Hg15 mi
2:00 PM48 °FCloudy.12 mph94%29.74 "Hg15 mi
1:55 PM48 °FCloudy.12 mph94%29.74 "Hg15 mi
1:00 PM48 °FLight rain. Mostly cloudy.13 mph94%29.71 "Hg7 mi
Weather by CustomWeather, © 2015

See weather overviewHow to use our weather pages